Georgetown, DE

4:41 PM EDT on April 25, 2017 (GMT -0400)
Sussex County

Weather History for KGED - March, 2013

Change the Weather History Date:

Sunday, March 17, 2013

  Actual Average Record
Temperature  
Mean Temperature 38 °F 45 °F  
Max Temperature 40 °F 55 °F 77 °F (1990)
Min Temperature 36 °F 35 °F 18 °F (1966)
Degree Days  
Heating Degree Days 27 20  
Month to date heating degree days 406 382  
Since 1 July heating degree days 3386 3662  
Cooling Degree Days 0 0  
Month to date cooling degree days 0 0  
Year to date cooling degree days 0 0  
Moisture  
Dew Point 29 °F    
Average Humidity 70    
Maximum Humidity 85    
Minimum Humidity 54    
Precipitation  
Precipitation T in 0.14 in 1.40 in (1963)
Month to date precipitation 2.46 2.01  
Year to date precipitation 7.43 7.72  
Sea Level Pressure  
Sea Level Pressure 30.12 in    
Wind  
Wind Speed 6 mph (NNE)    
Max Wind Speed 20 mph    
Max Gust Speed 24 mph    
Visibility 10 miles    
Events      
T = Trace of Precipitation, MM = Missing Value Source: NWS Daily Summary

Daily Weather History Graph

Daily Weather History Graph

Search for Another Location

Airport or City:

Trip Planner

Search our weather history database for the weather conditions in past years. The results will help you decide how hot, cold, wet, or windy it might be!

Date:

Astronomy

Mar. 17, 2013 Rise Set
Actual Time 7:09 AM EDT 7:10 PM EDT
Civil Twilight 6:42 AM EDT 7:37 PM EDT
Nautical Twilight 6:11 AM EDT 8:08 PM EDT
Astronomical Twilight 5:40 AM EDT 8:39 PM EDT
Moon 10:23 AM EDT (3/17) 12:13 AM EDT (3/17)
Length of Visible Light 12h 54m
Length of Day
12h 01m
Waxing Crescent, 31% of the Moon is Illuminated
Mar 17
Waxing Crescent
Mar 19
First Quarter
Mar 27
Full
Apr 3
Last Quarter
Apr 10
New

Hourly Weather History & Observations

Time (EDT) Temp. Windchill Dew Point Humidity Pressure Visibility Wind Dir Wind Speed Gust Speed Precip Events Conditions
12:54 AM 39.0 °F 31.4 °F 34.0 °F 82% 29.91 in 10.0 mi NNE 12.7 mph 20.7 mph N/A   Overcast
1:54 AM 37.9 °F 32.1 °F 33.1 °F 83% 29.93 in 10.0 mi NNE 8.1 mph - N/A   Overcast
2:54 AM 37.0 °F 33.3 °F 33.1 °F 86% 29.96 in 10.0 mi North 4.6 mph - N/A   Overcast
3:54 AM 37.9 °F 32.7 °F 33.1 °F 83% 29.96 in 10.0 mi North 6.9 mph - N/A   Overcast
4:54 AM 37.0 °F 31.0 °F 33.1 °F 86% 29.98 in 7.0 mi NNE 8.1 mph - N/A   Overcast
5:54 AM 37.0 °F 29.8 °F 32.0 °F 82% 30.01 in 10.0 mi NNE 10.4 mph - N/A   Overcast
6:01 AM 37.4 °F 30.3 °F 32.0 °F 81% 30.00 in 8.0 mi NNE 10.4 mph - N/A   Overcast
6:54 AM 37.0 °F 32.4 °F 32.0 °F 82% 30.06 in 10.0 mi North 5.8 mph - N/A   Overcast
7:30 AM 37.4 °F 32.8 °F 30.2 °F 75% 30.07 in 10.0 mi North 5.8 mph - N/A   Overcast
7:54 AM 37.0 °F 33.3 °F 30.0 °F 76% 30.09 in 10.0 mi Variable 4.6 mph - N/A   Overcast
8:54 AM 37.9 °F 32.7 °F 28.9 °F 70% 30.11 in 10.0 mi North 6.9 mph - N/A   Overcast
9:54 AM 37.0 °F 30.4 °F 30.0 °F 76% 30.14 in 7.0 mi NNE 9.2 mph - N/A   Overcast
10:54 AM 39.0 °F 31.8 °F 27.0 °F 62% 30.15 in 10.0 mi NNE 11.5 mph 16.1 mph N/A   Mostly Cloudy
11:24 AM 39.2 °F 32.5 °F 26.6 °F 61% 30.16 in 10.0 mi NNE 10.4 mph - N/A   Mostly Cloudy
11:54 AM 39.9 °F 32.5 °F 26.1 °F 58% 30.16 in 10.0 mi NE 12.7 mph - N/A   Overcast
12:54 PM 39.0 °F 32.8 °F 26.1 °F 60% 30.18 in 10.0 mi NE 9.2 mph - N/A   Overcast
1:54 PM 39.9 °F 32.5 °F 27.0 °F 60% 30.17 in 10.0 mi NE 12.7 mph - N/A   Overcast
2:54 PM 37.9 °F 35.5 °F 28.9 °F 70% 30.16 in 10.0 mi ENE 3.5 mph - 0.00 in   Overcast
3:54 PM 39.9 °F 35.1 °F 26.1 °F 58% 30.18 in 10.0 mi NNE 6.9 mph - N/A   Overcast
4:54 PM 39.0 °F 34.8 °F 24.1 °F 55% 30.19 in 10.0 mi NNE 5.8 mph - N/A   Overcast
5:54 PM 39.0 °F 35.7 °F 24.1 °F 55% 30.20 in 10.0 mi NNE 4.6 mph - N/A   Overcast
6:54 PM 39.0 °F 36.8 °F 25.0 °F 57% 30.22 in 10.0 mi NNE 3.5 mph - N/A   Overcast
7:54 PM 37.9 °F 35.5 °F 25.0 °F 60% 30.24 in 10.0 mi NE 3.5 mph - N/A   Overcast
8:54 PM 37.9 °F - 25.0 °F 60% 30.26 in 10.0 mi Calm Calm - N/A   Overcast
9:54 PM 37.9 °F - 25.0 °F 60% 30.27 in 10.0 mi Calm Calm - N/A   Mostly Cloudy
10:54 PM 37.0 °F - 26.1 °F 65% 30.27 in 10.0 mi Calm Calm - N/A   Overcast
11:54 PM 36.0 °F 32.1 °F 27.0 °F 70% 30.28 in 10.0 mi NE 4.6 mph - N/A   Mostly Cloudy